Kalaeloa, HI

6:38 AM HST on October 22, 2017 (GMT -1000)
Kalaeloa (John Rodgers Field)

Weather History for PHJR - August, 2013

Change the Weather History Date:

Sunday, August 25, 2013

  Actual Average (PHHI) Record (PHHI)
Temperature  
Mean Temperature 80 °F -  
Max Temperature 89 °F 81 °F 84 °F (1997)
Min Temperature 71 °F 68 °F 64 °F (2003)
Cooling Degree Days 15    
Growing Degree Days 30 (Base 50)    
Moisture  
Dew Point 65 °F    
Average Humidity 62    
Maximum Humidity 78    
Minimum Humidity 42    
Precipitation  
Precipitation 0.00 in - - ()
Sea Level Pressure  
Sea Level Pressure 30.07 in    
Wind  
Wind Speed 6 mph (ENE)    
Max Wind Speed 13 mph    
Max Gust Speed 23 mph    
Visibility 10 miles    
Events      
Averages and records for this station are not official NWS values.
T = Trace of Precipitation, MM = Missing Value Source: NWS Daily Summary

Daily Weather History Graph

Daily Weather History Graph

Search for Another Location

Airport or City:

Trip Planner

Search our weather history database for the weather conditions in past years. The results will help you decide how hot, cold, wet, or windy it might be!

Date:

Astronomy

Aug. 25, 2013 Rise Set
Actual Time 6:13 AM HST 6:54 PM HST
Civil Twilight 5:51 AM HST 7:16 PM HST
Nautical Twilight 5:24 AM HST 7:43 PM HST
Astronomical Twilight 4:57 AM HST 8:10 PM HST
Moon 10:20 PM HST (8/25) 10:41 AM HST (8/25)
Length of Visible Light 13h 25m
Length of Day
12h 40m
Waning Gibbous, 74% of the Moon is Illuminated
Aug 25
Waning Gibbous
Aug 27
Last Quarter
Sep 5
New
Sep 12
First Quarter
Sep 19
Full

Hourly Weather History & Observations

Time (HST) Temp. Heat Index Dew Point Humidity Pressure Visibility Wind Dir Wind Speed Gust Speed Precip Events Conditions
12:53 AM 73.0 °F - 64.9 °F 76% 30.07 in 10.0 mi Variable 3.5 mph - N/A   Partly Cloudy
1:53 AM 73.0 °F - 64.9 °F 76% 30.06 in 10.0 mi Variable 3.5 mph - N/A   Clear
2:53 AM 73.0 °F - 64.9 °F 76% 30.05 in 10.0 mi ENE 4.6 mph - N/A   Clear
3:53 AM 73.0 °F - 64.9 °F 76% 30.04 in 10.0 mi ENE 4.6 mph - N/A   Clear
4:53 AM 73.0 °F - 64.9 °F 76% 30.05 in 10.0 mi Variable 3.5 mph - N/A   Clear
5:53 AM 72.0 °F - 64.9 °F 78% 30.06 in 10.0 mi ENE 3.5 mph - N/A   Clear
6:32 AM 71.6 °F - 64.4 °F 78% 30.04 in 10.0 mi Calm Calm - N/A   Scattered Clouds
6:53 AM 73.0 °F - 64.9 °F 76% 30.07 in 10.0 mi ENE 3.5 mph - N/A   Unknown
7:53 AM 79.0 °F - 66.0 °F 64% 30.08 in 10.0 mi East 6.9 mph - N/A   Clear
8:53 AM 82.9 °F 84.6 °F 64.9 °F 54% 30.09 in 10.0 mi East 10.4 mph 18.4 mph N/A   Clear
9:13 AM 82.4 °F 83.9 °F 64.4 °F 54% 30.07 in 10.0 mi ENE 9.2 mph 23.0 mph N/A   Partly Cloudy
9:53 AM 84.9 °F 86.1 °F 64.0 °F 49% 30.09 in 10.0 mi East 11.5 mph 18.4 mph N/A   Partly Cloudy
10:53 AM 86.0 °F 87.6 °F 64.9 °F 49% 30.09 in 10.0 mi East 11.5 mph 21.9 mph N/A   Partly Cloudy
11:53 AM 87.1 °F 88.3 °F 64.0 °F 46% 30.08 in 10.0 mi East 12.7 mph 21.9 mph N/A   Mostly Cloudy
12:53 PM 88.0 °F 89.3 °F 64.0 °F 45% 30.06 in 10.0 mi ENE 10.4 mph 17.3 mph N/A   Mostly Cloudy
1:53 PM 89.1 °F 90.0 °F 63.0 °F 42% 30.05 in 10.0 mi East 9.2 mph - N/A   Partly Cloudy
2:53 PM 86.0 °F 87.3 °F 64.0 °F 48% 30.04 in 10.0 mi ENE 9.2 mph 16.1 mph N/A   Scattered Clouds
3:53 PM 86.0 °F 88.2 °F 66.0 °F 51% 30.03 in 10.0 mi East 9.2 mph - N/A   Mostly Cloudy
4:53 PM 84.0 °F 85.4 °F 64.0 °F 51% 30.04 in 10.0 mi East 10.4 mph 20.7 mph N/A   Partly Cloudy
5:53 PM 82.9 °F 84.6 °F 64.9 °F 54% 30.05 in 10.0 mi ENE 9.2 mph 16.1 mph N/A   Clear
6:53 PM 79.0 °F - 64.0 °F 60% 30.06 in 10.0 mi ENE 9.2 mph - N/A   Clear
7:53 PM 78.1 °F - 64.0 °F 62% 30.09 in 10.0 mi East 5.8 mph - N/A   Clear
8:41 PM 77.0 °F - 64.4 °F 65% 30.08 in 10.0 mi East 4.6 mph - N/A   Scattered Clouds
8:53 PM 77.0 °F - 64.9 °F 66% 30.10 in 10.0 mi East 5.8 mph - N/A   Unknown
9:53 PM 77.0 °F - 64.9 °F 66% 30.12 in 10.0 mi Variable 3.5 mph - N/A   Unknown
10:53 PM 75.9 °F - 64.9 °F 69% 30.12 in 10.0 mi Variable 4.6 mph - N/A   Partly Cloudy
11:53 PM 75.9 °F - 66.0 °F 71% 30.11 in 10.0 mi ENE 3.5 mph - N/A   Unknown